Regional Weather Roundup
Issued by NWS Albany, NY

Home | Current Version | Previous Version | Text Only | Print | Product List | Glossary On
Versions: 1 2 3 4 5 6 7 8 9 10 11 12 13 14 15 16 17 18 19 20 21 22 23 24 25 26 27 28 29 30 31 32 33 34 35 36 37 38 39 40 41 42 43 44 45 46 47 48 49 50
000
ASUS41 KALY 281210
RWRALY

NEW YORK STATE HOURLY WEATHER ROUNDUP
NATIONAL WEATHER SERVICE ALBANY NY
800 AM EDT THU MAY 28 2015

NOTE: "FAIR" INDICATES FEW OR NO CLOUDS BELOW 12,000 FEET WITH NO
SIGNIFICANT WEATHER AND/OR NO OBSTRUCTIONS TO VISIBILITY.

NYZ032-033-038>043-046>054-057>066-NYZ062>081-281300-
EAST


CITY           SKY/WX    TMP DP  RH WIND       PRES   REMARKS
ALBANY         CLOUDY    70  65  84 S10       30.10S
GLENS FALLS    CLOUDY    68  64  87 SW10      30.08S
POUGHKEEPSIE   CLOUDY    71  68  90 CALM      30.13S
NEWBURGH       PTSUNNY   70  70 100 SW6       30.16S
MONTGOMERY     PTSUNNY   72  69  90 SW10      30.14S
WHITE PLAINS   PTSUNNY   66  64  93 S5        30.16S FOG
ISLIP          CLOUDY    65  61  87 SW8       30.18R
NEW YORK CITY  PTSUNNY   72  63  73 S9        30.16R
CENTRAL PARK   CLOUDY    72  67  84 VRB3      30.19R HAZE
$$

NYZ005>009-017-018-044>046-055-056-281300-
CENTRAL


CITY           SKY/WX    TMP DP  RH WIND       PRES   REMARKS
FULTON         LGT RAIN  62  55  77 W15G26    30.11R
SYRACUSE       PTSUNNY   70  59  68 SW14      30.09R
ROME           CLOUDY    67  63  87 CALM      30.11R
ELMIRA         MOSUNNY   66  61  84 W8        30.15R
BINGHAMTON     PTSUNNY   67  61  81 W14       30.16R
MONTICELLO     CLOUDY    64  64 100 CALM      30.19R VSB 1/2
$$

NYZ026>034-041>043-281300-
NORTH


CITY           SKY/WX    TMP DP  RH WIND       PRES   REMARKS
WATERTOWN      CLOUDY    60  58  92 SW12      30.06S
FORT DRUM      NOT AVBL
MASSENA        CLOUDY    67  59  75 SW20G26   30.02R
SARANAC LAKE   CLOUDY    62  59  90 SW7       30.07S
PLATTSBURGH    LGT RAIN  65  63  93 VRB3      30.03R
$$

NYZ001>004-010>016-019>021-281300-
WEST


CITY           SKY/WX    TMP DP  RH WIND       PRES   REMARKS
NIAGARA FALLS  CLOUDY    60  52  74 NW12      30.18R
BUFFALO        PTSUNNY   61  51  70 W12G21    30.19R
DUNKIRK        SUNNY     61  54  77 W7        30.23R
JAMESTOWN      MOSUNNY   57  52  82 W10       30.25R
WELLSVILLE     PTSUNNY   62  57  83 W10G20    30.22R
ROCHESTER      CLOUDY    62  53  72 W18G26    30.14R
PENN YAN       MOSUNNY   69  58  67 SW14G24   30.13R
$$

             KEY
       WCI = WIND CHILL INDEX
       VSB = VISIBILITY
       HX  = HEAT INDEX
$$


USA.gov is the U.S. government's official web portal to all federal, state and local government web resources and services.